Location: Unspecified
(0.0000°N, 0.0000°E)
Time: 19:34:26
(UTC+00:00)

FALCON 9 R/B - Visible Passes

Search period start: 25 February 2021 00:00
Search period end: 07 March 2021 00:00
Orbit: 454 x 62288 km, 25.4° (Epoch: 24 February)

Date Brightness Start Highest point End Pass type
(mag) Time Alt. Az. Time Alt. Az. Time Alt. Az.
25 Feb ? 18:45:16 10° ENE 00:55:47 85° N 08:29:30 10° SSE daylight
26 Feb ? 19:41:14 12° E 02:03:33 83° SSE 04:34:52 10° SE visible
27 Feb ? 20:39:45 10° E 23:07:27 27° E 00:18:40 10° ESE visible
28 Feb ? 22:03:04 10° WNW 23:49:18 49° NW 04:34:30 10° WNW visible
01 Mar ? 17:59:04 10° WNW 18:22:48 47° NNE 02:09:00 51° WNW daylight
02 Mar ? 17:49:01 10° ENE 02:11:53 62° W 06:23:57 10° W daylight
03 Mar ? 18:48:38 10° E 01:01:22 89° N 06:20:47 10° SE daylight
04 Mar ? 19:37:45 10° E 00:46:04 59° ESE 02:21:11 10° ESE visible
06 Mar ? 00:13:49 10° WNW 01:23:07 21° WNW 03:25:27 10° WNW visible
